Date String (YYYY-MM-DD hh:mm:ss) UTC,Instrument flags,Ambient pressure (hPa),Sample flow (lpm),Bypass flow (lpm),Sample temperature (°C),Ambient temperature (°C),ASC tube jacket temperature (°C),LED temperature (°C),Box temperature (°C),Sample RH (%),Span deviation,Mass concentration (μg/m³),Mass concentration (μg/m³),Mass concentration (μg/m³)
DateTimeUTC,F1_M11,P_M11,Q1_M11,Q2_M11,T1_M11,T2_M11,T3_M11,T4_M11,T5_M11,U1_M11,ZSPAN_M11,X0_M11,X2_M11,X1_M11
2022-12-08 13:00:00,,0822.6,4.99,0.00,21.8,20.7,00.0,30.7,23.5,10.6,0000.0,0004.84,0001.10,0000.56
2022-12-08 13:01:00,,0822.7,5.00,0.00,21.8,20.5,00.0,30.7,23.4,10.5,0000.0,0004.71,0001.10,0000.56
2022-12-08 13:02:00,,0822.6,5.01,0.00,21.8,20.4,00.0,30.7,23.4,10.3,0000.0,0004.45,0001.06,0000.56
2022-12-08 13:03:00,,0822.6,5.01,0.00,21.8,20.3,00.0,30.7,23.4,09.9,0000.0,0004.09,0001.09,0000.56
2022-12-08 13:04:00,,0822.6,5.01,0.00,21.7,20.2,00.0,30.7,23.4,10.0,0000.0,0003.89,0001.07,0000.55
2022-12-08 13:05:00,,0822.6,4.99,0.00,21.7,20.2,00.0,30.7,23.4,10.1,0000.0,0004.53,0001.09,0000.54
2022-12-08 13:06:00,,0822.6,4.99,0.00,21.7,20.1,00.0,30.7,23.3,09.9,0000.0,0005.24,0001.14,0000.55
2022-12-08 13:07:00,,0822.6,5.02,0.00,21.7,20.1,00.0,30.7,23.3,10.1,0000.0,0005.40,0001.14,0000.54
2022-12-08 13:08:00,,0822.6,5.00,0.00,21.6,20.1,00.0,30.7,23.3,10.1,0000.0,0004.76,0001.11,0000.54
2022-12-08 13:09:00,,0822.6,4.97,0.00,21.7,21.1,00.0,30.6,23.5,10.2,0000.0,0003.92,0001.10,0000.54
2022-12-08 13:10:00,,0822.4,5.02,0.00,21.8,22.1,00.0,30.6,23.8,10.1,0000.0,0003.73,0001.04,0000.54
2022-12-08 13:11:00,,0822.6,4.98,0.00,21.9,21.8,00.0,30.7,23.8,09.9,0000.0,0004.27,0000.95,0000.52
2022-12-08 13:12:00,,0822.7,5.00,0.00,21.9,21.4,00.0,30.7,23.7,09.9,0000.0,0004.35,0000.92,0000.50
2022-12-08 13:13:00,,0822.7,5.00,0.00,21.8,21.1,00.0,30.7,23.6,10.0,0000.0,0004.26,0000.91,0000.48
2022-12-08 13:14:00,,0822.6,5.00,0.00,21.9,20.9,00.0,30.7,23.6,09.8,0000.0,0004.20,0000.89,0000.48
2022-12-08 13:15:00,,0822.8,5.01,0.00,21.8,20.8,00.0,30.7,23.6,09.7,0000.0,0004.31,0000.88,0000.47
2022-12-08 13:16:00,,0822.7,5.00,0.00,21.8,20.7,00.0,30.7,23.6,09.7,0000.0,0003.79,0000.84,0000.48
2022-12-08 13:17:00,,0822.6,5.00,0.00,21.8,20.6,00.0,30.7,23.6,09.8,0000.0,0003.12,0000.81,0000.47
2022-12-08 13:18:00,,0822.6,5.00,0.00,21.8,20.6,00.0,30.7,23.6,09.8,0000.0,0002.96,0000.82,0000.48
2022-12-08 13:19:00,,0822.5,5.00,0.00,21.8,20.5,00.0,30.7,23.5,09.8,0000.0,0003.00,0000.84,0000.48
2022-12-08 13:20:00,,0822.6,5.00,0.00,21.8,20.4,00.0,30.7,23.5,09.9,0000.0,0003.02,0000.85,0000.48
2022-12-08 13:21:00,,0822.6,5.01,0.00,21.8,20.4,00.0,30.7,23.5,09.9,0000.0,0003.01,0000.85,0000.48
2022-12-08 13:22:00,,0822.7,5.01,0.00,21.8,20.3,00.0,30.7,23.5,10.0,0000.0,0002.26,0000.91,0000.49
2022-12-08 13:23:00,,0822.7,5.00,0.00,21.8,20.3,00.0,30.7,23.5,10.1,0000.0,0002.06,0000.97,0000.51
2022-12-08 13:24:00,,0822.7,5.00,0.00,21.7,20.3,00.0,30.7,23.5,10.3,0000.0,0002.12,0001.00,0000.52
2022-12-08 13:25:00,,0822.7,5.00,0.00,21.7,20.3,00.0,30.7,23.5,10.4,0000.0,0002.13,0001.02,0000.54
2022-12-08 13:26:00,,0822.7,4.99,0.00,21.7,20.3,00.0,30.7,23.5,10.3,0000.0,0002.29,0001.03,0000.57
2022-12-08 13:27:00,,0822.7,4.99,0.00,21.7,20.3,00.0,30.7,23.5,10.2,0000.0,0002.68,0001.05,0000.58
2022-12-08 13:28:00,,0822.7,5.00,0.00,21.7,20.3,00.0,30.7,23.5,10.1,0000.0,0002.67,0001.03,0000.58
2022-12-08 13:29:00,,0822.7,5.01,0.00,21.8,21.1,00.0,30.6,23.6,10.0,0000.0,0002.66,0001.02,0000.58
2022-12-08 13:30:00,,0822.7,5.00,0.00,21.9,22.1,00.0,30.6,23.9,09.9,0000.0,0002.69,0001.01,0000.58
2022-12-08 13:31:00,,0822.6,5.01,0.00,22.0,22.4,00.0,30.7,24.1,09.9,0000.0,0002.62,0000.97,0000.58
2022-12-08 13:32:00,,0822.7,5.00,0.00,22.0,22.0,00.0,30.7,24.0,09.9,0000.0,0002.68,0000.96,0000.57
2022-12-08 13:33:00,,0822.6,5.00,0.00,22.0,21.6,00.0,30.8,23.9,09.9,0000.0,0002.60,0000.91,0000.57
2022-12-08 13:34:00,,0822.6,4.99,0.00,22.0,21.4,00.0,30.8,23.9,10.0,0000.0,0002.45,0000.84,0000.56
2022-12-08 13:35:00,,0822.7,4.99,0.00,22.0,21.2,00.0,30.8,23.9,10.0,0000.0,0002.41,0000.82,0000.56
2022-12-08 13:36:00,,0822.7,5.00,0.00,22.0,21.1,00.0,30.8,23.9,09.7,0000.0,0002.39,0000.81,0000.55
2022-12-08 13:37:00,,0822.7,5.00,0.00,22.0,21.1,00.0,30.8,23.9,09.7,0000.0,0002.27,0000.81,0000.54
2022-12-08 13:38:00,,0822.8,5.00,0.00,22.0,21.0,00.0,30.9,23.8,09.7,0000.0,0001.75,0000.83,0000.54
2022-12-08 13:39:00,,0822.7,5.00,0.00,22.0,20.9,00.0,30.9,23.8,09.6,0000.0,0003.28,0000.86,0000.55
2022-12-08 13:40:00,,0822.7,5.00,0.00,22.0,20.8,00.0,30.9,23.8,09.7,0000.0,0004.93,0000.89,0000.55
2022-12-08 13:41:00,,0822.7,5.01,0.00,22.0,20.8,00.0,30.9,23.8,09.6,0000.0,0005.68,0000.89,0000.55
2022-12-08 13:42:00,,0822.8,4.99,0.00,22.0,20.7,00.0,30.9,23.8,09.5,0000.0,0006.02,0000.92,0000.55
2022-12-08 13:43:00,,0822.8,5.00,0.00,22.0,20.7,00.0,30.9,23.8,09.5,0000.0,0006.38,0000.92,0000.55
2022-12-08 13:44:00,,0822.8,5.02,0.00,22.0,20.7,00.0,30.9,23.8,09.5,0000.0,0006.39,0000.93,0000.56
2022-12-08 13:45:00,,0822.8,4.99,0.00,22.0,20.7,00.0,30.9,23.8,09.4,0000.0,0006.41,0000.94,0000.56
2022-12-08 13:46:00,,0822.7,5.00,0.00,22.0,20.7,00.0,30.9,23.8,09.4,0000.0,0006.40,0000.94,0000.56
2022-12-08 13:47:00,,0822.8,5.00,0.00,22.0,20.6,00.0,30.9,23.8,09.3,0000.0,0006.43,0000.94,0000.55
2022-12-08 13:48:00,,0822.8,5.02,0.00,22.0,20.6,00.0,30.9,23.7,09.2,0000.0,0006.61,0000.95,0000.55
2022-12-08 13:49:00,,0822.8,4.99,0.00,22.0,20.5,00.0,30.9,23.7,09.2,0000.0,0006.65,0000.96,0000.54
2022-12-08 13:50:00,,0822.9,5.01,0.00,21.9,20.5,00.0,30.9,23.7,09.1,0000.0,0005.79,0000.94,0000.53
2022-12-08 13:51:00,,0823.0,5.00,0.00,21.9,20.5,00.0,30.9,23.7,09.3,0000.0,0003.55,0000.92,0000.52
2022-12-08 13:52:00,,0823.1,4.98,0.00,21.9,20.5,00.0,30.8,23.7,09.3,0000.0,0002.64,0000.89,0000.53
2022-12-08 13:53:00,,0822.9,4.99,0.00,21.9,20.5,00.0,30.8,23.7,09.3,0000.0,0002.33,0000.86,0000.53
2022-12-08 13:54:00,,0822.9,5.01,0.00,21.9,20.6,00.0,30.8,23.6,09.4,0000.0,0001.73,0000.84,0000.52
2022-12-08 13:55:00,,0823.1,5.02,0.00,22.0,21.4,00.0,30.8,23.8,09.1,0000.0,0001.69,0000.83,0000.51
2022-12-08 13:56:00,,0823.0,5.00,0.00,22.1,22.3,00.0,30.8,24.1,09.2,0000.0,0001.78,0000.83,0000.50
2022-12-08 13:57:00,,0823.0,4.99,0.00,22.1,22.1,00.0,30.8,24.1,08.8,0000.0,0001.86,0000.83,0000.50
2022-12-08 13:58:00,,0823.1,4.99,0.00,22.1,21.7,00.0,30.9,24.0,08.9,0000.0,0002.16,0000.86,0000.51
2022-12-08 13:59:00,,0822.9,5.00,0.00,22.1,21.3,00.0,30.9,23.9,08.7,0000.0,0002.10,0000.87,0000.51
